Time,TemperatureF,DewpointF,PressureIn,WindDirection,WindDirectionDegrees,WindSpeedMPH,WindSpeedGustMPH,Humidity,HourlyPrecipIn,Conditions,Clouds,dailyrainin,SoftwareType,DateUTC
2013-01-19 00:00:00,35.2,10.3,30.26,WNW,284,0.0,0.0,35,0.00,,---,0.00,VWS V13.01,2013-01-19 07:00:00,
2013-01-19 00:22:00,35.4,10.5,30.26,WNW,290,0.0,0.0,35,0.00,,---,0.00,VWS V13.01,2013-01-19 07:22:00,
2013-01-19 00:27:00,35.4,10.5,30.26,WNW,290,0.0,0.0,35,0.00,,---,0.00,VWS V13.01,2013-01-19 07:27:00,
2013-01-19 00:32:00,35.2,10.3,30.26,WNW,284,0.0,0.0,35,0.00,,---,0.00,VWS V13.01,2013-01-19 07:32:00,
2013-01-19 00:38:00,35.1,10.2,30.26,WNW,284,0.0,0.0,35,0.00,,---,0.00,VWS V13.01,2013-01-19 07:38:00,
2013-01-19 00:43:00,35.1,10.2,30.26,WNW,284,0.0,0.0,35,0.00,,---,0.00,VWS V13.01,2013-01-19 07:43:00,
2013-01-19 00:48:00,35.1,10.2,30.26,West,273,0.0,0.0,35,0.00,,---,0.00,VWS V13.01,2013-01-19 07:48:00,
2013-01-19 00:53:00,35.4,10.5,30.26,West,273,0.0,0.0,35,0.00,,---,0.00,VWS V13.01,2013-01-19 07:53:00,
2013-01-19 00:58:00,35.4,10.5,30.26,West,273,0.0,0.0,35,0.00,,---,0.00,VWS V13.01,2013-01-19 07:58:00,
2013-01-19 01:04:00,35.6,10.7,30.26,West,273,0.0,0.0,35,0.00,,---,0.00,VWS V13.01,2013-01-19 08:04:00,
2013-01-19 01:09:00,35.4,10.5,30.26,West,273,0.0,0.0,35,0.00,,---,0.00,VWS V13.01,2013-01-19 08:09:00,
2013-01-19 01:14:00,35.2,10.3,30.26,West,273,0.0,0.0,35,0.00,,---,0.00,VWS V13.01,2013-01-19 08:14:00,
2013-01-19 01:19:00,35.1,10.2,30.26,West,273,0.0,0.0,35,0.00,,---,0.00,VWS V13.01,2013-01-19 08:19:00,
2013-01-19 01:24:00,34.2,9.4,30.26,West,273,0.0,0.0,35,0.00,,---,0.00,VWS V13.01,2013-01-19 08:24:00,
2013-01-19 01:30:00,33.3,9.2,30.26,West,264,0.0,0.0,36,0.00,,---,0.00,VWS V13.01,2013-01-19 08:30:00,
2013-01-19 01:35:00,32.5,8.6,30.26,West,264,0.0,0.0,36,0.00,,---,0.00,VWS V13.01,2013-01-19 08:35:00,
2013-01-19 01:40:00,31.8,7.9,30.26,West,264,0.0,0.0,36,0.00,,---,0.00,VWS V13.01,2013-01-19 08:40:00,
2013-01-19 01:45:00,31.5,7.6,30.26,West,264,0.0,0.0,36,0.00,,---,0.00,VWS V13.01,2013-01-19 08:45:00,
2013-01-19 01:50:00,31.5,8.2,30.26,West,264,0.0,0.0,37,0.00,,---,0.00,VWS V13.01,2013-01-19 08:50:00,
2013-01-19 01:55:00,31.3,7.4,30.26,WSW,254,0.0,0.0,36,0.00,,---,0.00,VWS V13.01,2013-01-19 08:55:00,
2013-01-19 02:00:00,31.1,7.9,30.26,WSW,254,0.0,0.0,37,0.00,,---,0.00,VWS V13.01,2013-01-19 09:00:00,
2013-01-19 02:06:00,31.1,8.5,30.26,WSW,254,0.0,0.0,38,0.00,,---,0.00,VWS V13.01,2013-01-19 09:06:00,
2013-01-19 02:11:00,31.1,7.9,30.26,WSW,254,0.0,0.0,37,0.00,,---,0.00,VWS V13.01,2013-01-19 09:11:00,
2013-01-19 02:16:00,31.1,8.5,30.26,WSW,246,0.0,0.0,38,0.00,,---,0.00,VWS V13.01,2013-01-19 09:16:00,
2013-01-19 02:21:00,30.9,8.3,30.26,WSW,246,0.0,0.0,38,0.00,,---,0.00,VWS V13.01,2013-01-19 09:21:00,
2013-01-19 02:27:00,30.6,8.6,30.26,WSW,246,0.0,0.0,39,0.00,,---,0.00,VWS V13.01,2013-01-19 09:27:00,
2013-01-19 02:32:00,30.7,8.7,30.26,WSW,246,0.0,0.0,39,0.00,,---,0.00,VWS V13.01,2013-01-19 09:32:00,
2013-01-19 02:37:00,30.7,9.3,30.26,WSW,246,0.0,0.0,40,0.00,,---,0.00,VWS V13.01,2013-01-19 09:37:00,
2013-01-19 02:42:00,31.1,9.6,30.26,WSW,246,0.0,0.0,40,0.00,,---,0.00,VWS V13.01,2013-01-19 09:42:00,
2013-01-19 02:47:00,31.1,9.6,30.26,WSW,246,0.0,0.0,40,0.00,,---,0.00,VWS V13.01,2013-01-19 09:47:00,
2013-01-19 02:53:00,31.3,9.8,30.26,WSW,246,0.0,0.0,40,0.00,,---,0.00,VWS V13.01,2013-01-19 09:53:00,
2013-01-19 02:58:00,31.3,9.8,30.26,WSW,246,0.0,0.0,40,0.00,,---,0.00,VWS V13.01,2013-01-19 09:58:00,
2013-01-19 03:03:00,31.3,9.8,30.26,WSW,246,0.0,0.0,40,0.00,,---,0.00,VWS V13.01,2013-01-19 10:03:00,
2013-01-19 03:08:00,31.3,9.8,30.26,WSW,246,0.0,0.0,40,0.00,,---,0.00,VWS V13.01,2013-01-19 10:08:00,
2013-01-19 03:13:00,31.1,9.6,30.26,WSW,246,0.0,0.0,40,0.00,,---,0.00,VWS V13.01,2013-01-19 10:13:00,
2013-01-19 03:18:00,30.9,9.4,30.26,WSW,246,0.0,0.0,40,0.00,,---,0.00,VWS V13.01,2013-01-19 10:18:00,
2013-01-19 03:23:00,31.1,9.6,30.26,WSW,246,0.0,0.0,40,0.00,,---,0.00,VWS V13.01,2013-01-19 10:23:00,
2013-01-19 03:29:00,31.1,10.2,30.26,WSW,246,0.0,0.0,41,0.00,,---,0.00,VWS V13.01,2013-01-19 10:29:00,
2013-01-19 03:34:00,31.3,10.3,30.26,WSW,246,0.0,0.0,41,0.00,,---,0.00,VWS V13.01,2013-01-19 10:34:00,
2013-01-19 03:39:00,31.5,10.5,30.26,WSW,246,0.0,0.0,41,0.00,,---,0.00,VWS V13.01,2013-01-19 10:39:00,
2013-01-19 03:44:00,31.6,10.6,30.26,WSW,246,0.0,0.0,41,0.00,,---,0.00,VWS V13.01,2013-01-19 10:44:00,
2013-01-19 03:49:00,31.5,10.5,30.26,WSW,246,0.0,0.0,41,0.00,,---,0.00,VWS V13.01,2013-01-19 10:49:00,
2013-01-19 03:54:00,31.6,10.6,30.26,WSW,246,0.0,0.0,41,0.00,,---,0.00,VWS V13.01,2013-01-19 10:54:00,
2013-01-19 04:00:00,31.1,10.2,30.26,WSW,246,0.0,0.0,41,0.00,,---,0.00,VWS V13.01,2013-01-19 11:00:00,
2013-01-19 04:05:00,31.1,10.2,30.26,WSW,246,0.0,0.0,41,0.00,,---,0.00,VWS V13.01,2013-01-19 11:05:00,
2013-01-19 04:10:00,31.1,10.2,30.26,WSW,246,0.0,0.0,41,0.00,,---,0.00,VWS V13.01,2013-01-19 11:10:00,
2013-01-19 05:48:00,27.9,7.8,30.26,WSW,246,0.0,0.0,42,0.00,,---,0.00,VWS V13.01,2013-01-19 12:48:00,
2013-01-19 05:49:00,27.7,7.6,30.26,WSW,246,0.0,0.0,42,0.00,,---,0.00,VWS V13.01,2013-01-19 12:49:00,
2013-01-19 05:50:00,27.5,7.4,30.26,WSW,246,0.0,0.0,42,0.00,,---,0.00,VWS V13.01,2013-01-19 12:50:00,
2013-01-19 05:55:00,27.1,7.6,30.26,WSW,246,0.0,0.0,43,0.00,,---,0.00,VWS V13.01,2013-01-19 12:55:00,
2013-01-19 06:00:00,27.5,7.9,30.26,WSW,246,0.0,0.0,43,0.00,,---,0.00,VWS V13.01,2013-01-19 13:00:00,
2013-01-19 06:05:00,27.7,8.6,30.26,WSW,246,0.0,0.0,44,0.00,,---,0.00,VWS V13.01,2013-01-19 13:05:00,
2013-01-19 06:11:00,27.5,8.5,30.26,WSW,246,0.0,0.0,44,0.00,,---,0.00,VWS V13.01,2013-01-19 13:11:00,
2013-01-19 06:16:00,27.5,7.9,30.26,WSW,246,0.0,0.0,43,0.00,,---,0.00,VWS V13.01,2013-01-19 13:16:00,
2013-01-19 06:21:00,27.1,7.6,30.26,WSW,246,0.0,0.0,43,0.00,,---,0.00,VWS V13.01,2013-01-19 13:21:00,
2013-01-19 06:26:00,27.7,8.6,30.26,WSW,246,0.0,0.0,44,0.00,,---,0.00,VWS V13.01,2013-01-19 13:26:00,
2013-01-19 06:32:00,27.9,8.8,30.26,WSW,246,0.0,0.0,44,0.00,,---,0.00,VWS V13.01,2013-01-19 13:32:00,
2013-01-19 06:37:00,27.9,8.8,30.26,WSW,246,0.0,0.0,44,0.00,,---,0.00,VWS V13.01,2013-01-19 13:37:00,
2013-01-19 06:42:00,28.2,9.1,30.26,WSW,246,0.0,0.0,44,0.00,,---,0.00,VWS V13.01,2013-01-19 13:42:00,
2013-01-19 06:48:00,28.0,8.9,30.26,WSW,246,0.0,0.0,44,0.00,,---,0.00,VWS V13.01,2013-01-19 13:48:00,
2013-01-19 06:53:00,27.9,8.8,30.26,WSW,246,0.0,0.0,44,0.00,,---,0.00,VWS V13.01,2013-01-19 13:53:00,
2013-01-19 06:58:00,28.0,8.9,30.26,WSW,246,0.0,0.0,44,0.00,,---,0.00,VWS V13.01,2013-01-19 13:58:00,
2013-01-19 07:04:00,28.0,8.9,30.29,WSW,246,0.0,0.0,44,0.00,,---,0.00,VWS V13.01,2013-01-19 14:04:00,
2013-01-19 07:09:00,27.5,8.5,30.29,WSW,246,0.0,0.0,44,0.00,,---,0.00,VWS V13.01,2013-01-19 14:09:00,
2013-01-19 07:14:00,27.0,8.0,30.29,WSW,246,0.0,0.0,44,0.00,,---,0.00,VWS V13.01,2013-01-19 14:14:00,
2013-01-19 07:19:00,27.3,8.3,30.29,WSW,246,0.0,0.0,44,0.00,,---,0.00,VWS V13.01,2013-01-19 14:19:00,
2013-01-19 07:25:00,27.0,8.0,30.29,WSW,246,0.0,0.0,44,0.00,,---,0.00,VWS V13.01,2013-01-19 14:25:00,
2013-01-19 07:30:00,26.8,7.8,30.29,WSW,239,0.0,0.0,44,0.00,,---,0.00,VWS V13.01,2013-01-19 14:30:00,
2013-01-19 07:36:00,27.1,8.1,30.29,WSW,239,0.0,0.0,44,0.00,,---,0.00,VWS V13.01,2013-01-19 14:36:00,
2013-01-19 07:41:00,27.3,8.3,30.29,WSW,239,0.0,0.0,44,0.00,,---,0.00,VWS V13.01,2013-01-19 14:41:00,
2013-01-19 07:46:00,27.7,8.6,30.29,WSW,239,0.0,0.0,44,0.00,,---,0.00,VWS V13.01,2013-01-19 14:46:00,
2013-01-19 07:51:00,28.2,9.1,30.29,WSW,239,0.0,0.0,44,0.00,,---,0.00,VWS V13.01,2013-01-19 14:51:00,
2013-01-19 07:57:00,28.6,9.4,30.29,WSW,239,0.0,0.0,44,0.00,,---,0.00,VWS V13.01,2013-01-19 14:57:00,
2013-01-19 08:02:00,29.1,9.9,30.29,WSW,239,0.0,0.0,44,0.00,,---,0.00,VWS V13.01,2013-01-19 15:02:00,
2013-01-19 08:07:00,29.7,10.4,30.29,WSW,239,0.0,0.0,44,0.00,,---,0.00,VWS V13.01,2013-01-19 15:07:00,
2013-01-19 08:12:00,30.2,10.9,30.29,WSW,239,0.0,0.0,44,0.00,,---,0.00,VWS V13.01,2013-01-19 15:12:00,
2013-01-19 08:17:00,31.5,11.6,30.29,WSW,239,0.0,0.0,43,0.00,,---,0.00,VWS V13.01,2013-01-19 15:17:00,
2013-01-19 08:23:00,32.5,12.5,30.29,WSW,239,0.0,0.0,43,0.00,,---,0.00,VWS V13.01,2013-01-19 15:23:00,
2013-01-19 08:28:00,34.0,13.3,30.29,WSW,239,0.0,0.0,42,0.00,,---,0.00,VWS V13.01,2013-01-19 15:28:00,
2013-01-19 08:33:00,34.9,14.7,30.32,NW,317,4.0,4.0,43,0.00,,---,0.00,VWS V13.01,2013-01-19 15:33:00,
2013-01-19 08:38:00,35.6,14.8,30.32,NW,323,3.1,4.0,42,0.00,,---,0.00,VWS V13.01,2013-01-19 15:38:00,
2013-01-19 08:43:00,36.5,15.1,30.32,NW,316,5.4,5.4,41,0.00,,---,0.00,VWS V13.01,2013-01-19 15:43:00,
2013-01-19 08:48:00,37.0,15.5,30.32,NW,316,5.4,5.4,41,0.00,,---,0.00,VWS V13.01,2013-01-19 15:48:00,
2013-01-19 08:54:00,37.4,15.3,30.32,NW,316,5.4,5.4,40,0.00,,---,0.00,VWS V13.01,2013-01-19 15:54:00,
2013-01-19 08:59:00,37.9,15.8,30.32,NW,316,4.0,5.4,40,0.00,,---,0.00,VWS V13.01,2013-01-19 15:59:00,
2013-01-19 09:04:00,38.3,16.1,30.32,NW,326,0.0,4.0,40,0.00,,---,0.00,VWS V13.01,2013-01-19 16:04:00,
2013-01-19 09:09:00,39.2,16.9,30.32,NNW,343,0.0,4.0,40,0.00,,---,0.00,VWS V13.01,2013-01-19 16:09:00,
2013-01-19 09:14:00,39.4,16.5,30.32,NW,321,0.0,4.0,39,0.00,,---,0.00,VWS V13.01,2013-01-19 16:14:00,
2013-01-19 09:19:00,40.3,17.3,30.32,NW,320,4.0,4.0,39,0.00,,---,0.00,VWS V13.01,2013-01-19 16:19:00,
2013-01-19 09:25:00,40.5,17.5,30.32,NW,323,4.0,4.0,39,0.00,,---,0.00,VWS V13.01,2013-01-19 16:25:00,
2013-01-19 09:30:00,41.0,18.0,30.32,NW,304,4.0,5.4,39,0.00,,---,0.00,VWS V13.01,2013-01-19 16:30:00,
2013-01-19 09:35:00,41.5,17.8,30.32,NNW,341,0.0,5.8,38,0.00,,---,0.00,VWS V13.01,2013-01-19 16:35:00,
2013-01-19 09:40:00,42.3,18.5,30.32,NNW,341,0.0,5.8,38,0.00,,---,0.00,VWS V13.01,2013-01-19 16:40:00,
2013-01-19 09:45:00,42.8,19.0,30.32,NNW,332,5.8,5.8,38,0.00,,---,0.00,VWS V13.01,2013-01-19 16:45:00,
2013-01-19 09:50:00,43.0,19.1,30.32,NW,316,4.9,5.8,38,0.00,,---,0.00,VWS V13.01,2013-01-19 16:50:00,
2013-01-19 09:56:00,43.7,19.1,30.32,NW,310,3.6,5.8,37,0.00,,---,0.00,VWS V13.01,2013-01-19 16:56:00,
2013-01-19 10:01:00,44.2,19.6,30.32,NW,321,4.9,5.8,37,0.00,,---,0.00,VWS V13.01,2013-01-19 17:01:00,
2013-01-19 10:07:00,45.0,19.6,30.32,North,0,3.1,5.8,36,0.00,,---,0.00,VWS V13.01,2013-01-19 17:07:00,
2013-01-19 10:12:00,45.7,19.6,30.32,NW,306,2.7,5.8,35,0.00,,---,0.00,VWS V13.01,2013-01-19 17:12:00,
2013-01-19 10:18:00,45.9,19.8,30.32,NW,324,4.5,5.8,35,0.00,,---,0.00,VWS V13.01,2013-01-19 17:18:00,
2013-01-19 10:24:00,46.4,20.2,30.32,North,353,2.7,5.8,35,0.00,,---,0.00,VWS V13.01,2013-01-19 17:24:00,
2013-01-19 10:29:00,46.8,19.9,30.32,North,4,6.3,6.3,34,0.00,,---,0.00,VWS V13.01,2013-01-19 17:29:00,
2013-01-19 10:34:00,47.3,19.7,30.32,WNW,298,2.7,6.3,33,0.00,,---,0.00,VWS V13.01,2013-01-19 17:34:00,
2013-01-19 10:40:00,47.5,19.1,30.32,North,6,0.0,6.3,32,0.00,,---,0.00,VWS V13.01,2013-01-19 17:40:00,
2013-01-19 10:45:00,47.8,19.4,30.32,ENE,59,4.5,6.3,32,0.00,,---,0.00,VWS V13.01,2013-01-19 17:45:00,
2013-01-19 10:50:00,48.4,19.2,30.32,NW,307,6.3,6.3,31,0.00,,---,0.00,VWS V13.01,2013-01-19 17:50:00,
2013-01-19 10:57:00,48.7,19.5,30.32,North,7,2.7,6.3,31,0.00,,---,0.00,VWS V13.01,2013-01-19 17:57:00,
2013-01-19 11:02:00,49.1,19.8,30.32,North,7,2.7,2.7,31,0.00,,---,0.00,VWS V13.01,2013-01-19 18:02:00,
2013-01-19 11:08:00,49.3,19.2,30.32,NNW,333,2.7,3.6,30,0.00,,---,0.00,VWS V13.01,2013-01-19 18:08:00,
2013-01-19 11:13:00,49.6,19.5,30.32,NW,326,3.6,3.6,30,0.00,,---,0.00,VWS V13.01,2013-01-19 18:13:00,
2013-01-19 11:19:00,50.4,20.1,30.32,NE,41,0.0,3.6,30,0.00,,---,0.00,VWS V13.01,2013-01-19 18:19:00,
2013-01-19 11:24:00,50.5,19.5,30.32,NNW,344,2.2,3.6,29,0.00,,---,0.00,VWS V13.01,2013-01-19 18:24:00,
2013-01-19 11:30:00,50.9,20.6,30.32,East,99,0.0,3.6,30,0.00,,---,0.00,VWS V13.01,2013-01-19 18:30:00,
2013-01-19 11:35:00,51.4,19.4,30.32,North,0,2.7,4.0,28,0.00,,---,0.00,VWS V13.01,2013-01-19 18:35:00,
2013-01-19 11:40:00,52.0,19.9,30.32,NNE,25,0.0,4.0,28,0.00,,---,0.00,VWS V13.01,2013-01-19 18:40:00,
2013-01-19 11:45:00,52.5,20.4,30.29,NW,320,2.7,4.0,28,0.00,,---,0.00,VWS V13.01,2013-01-19 18:45:00,
2013-01-19 11:51:00,52.7,20.5,30.29,NE,36,0.0,4.9,28,0.00,,---,0.00,VWS V13.01,2013-01-19 18:51:00,
2013-01-19 11:59:00,53.2,21.0,30.29,NNW,340,0.0,4.9,28,0.00,,---,0.00,VWS V13.01,2013-01-19 18:59:00,
2013-01-19 12:00:00,53.4,21.1,30.29,NNW,340,0.0,4.9,28,0.00,,---,0.00,VWS V13.01,2013-01-19 19:00:00,
2013-01-19 12:05:00,53.8,21.5,30.29,NW,308,0.0,0.0,28,0.00,,---,0.00,VWS V13.01,2013-01-19 19:05:00,
2013-01-19 12:10:00,54.5,20.3,30.29,NW,308,0.0,0.0,26,0.00,,---,0.00,VWS V13.01,2013-01-19 19:10:00,
2013-01-19 12:15:00,54.7,20.5,30.29,NE,49,0.0,0.0,26,0.00,,---,0.00,VWS V13.01,2013-01-19 19:15:00,
2013-01-19 12:20:00,55.2,21.0,30.29,ENE,57,0.0,0.0,26,0.00,,---,0.00,VWS V13.01,2013-01-19 19:20:00,
2013-01-19 12:27:00,55.9,21.6,30.29,ENE,57,0.0,0.0,26,0.00,,---,0.00,VWS V13.01,2013-01-19 19:27:00,
2013-01-19 12:32:00,56.5,21.1,30.26,ENE,68,0.0,2.7,25,0.00,,---,0.00,VWS V13.01,2013-01-19 19:32:00,
2013-01-19 12:37:00,57.0,22.5,30.26,NNW,327,2.7,2.7,26,0.00,,---,0.00,VWS V13.01,2013-01-19 19:37:00,
2013-01-19 12:42:00,57.4,21.9,30.26,NNW,327,2.7,2.7,25,0.00,,---,0.00,VWS V13.01,2013-01-19 19:42:00,
2013-01-19 12:47:00,57.9,22.3,30.26,NW,320,2.7,2.7,25,0.00,,---,0.00,VWS V13.01,2013-01-19 19:47:00,
2013-01-19 12:53:00,58.8,23.1,30.26,North,357,4.9,4.9,25,0.00,,---,0.00,VWS V13.01,2013-01-19 19:53:00,
2013-01-19 12:59:00,59.0,22.3,30.26,NE,49,0.0,4.9,24,0.00,,---,0.00,VWS V13.01,2013-01-19 19:59:00,
2013-01-19 13:06:00,59.4,22.6,30.26,NNE,29,0.0,4.0,24,0.00,,---,0.00,VWS V13.01,2013-01-19 20:06:00,
2013-01-19 13:12:00,59.5,23.7,30.26,ENE,72,0.0,4.0,25,0.00,,---,0.00,VWS V13.01,2013-01-19 20:12:00,
2013-01-19 13:17:00,60.4,23.5,30.26,NW,320,4.9,4.9,24,0.00,,---,0.00,VWS V13.01,2013-01-19 20:17:00,
2013-01-19 13:23:00,60.3,23.4,30.26,North,0,0.0,4.9,24,0.00,,---,0.00,VWS V13.01,2013-01-19 20:23:00,
2013-01-19 13:29:00,60.6,23.6,30.26,ENE,62,0.0,4.9,24,0.00,,---,0.00,VWS V13.01,2013-01-19 20:29:00,
2013-01-19 13:34:00,60.8,20.6,30.23,ENE,58,0.0,4.9,21,0.00,,---,0.00,VWS V13.01,2013-01-19 20:34:00,
2013-01-19 13:40:00,61.3,21.1,30.23,ENE,58,0.0,4.9,21,0.00,,---,0.00,VWS V13.01,2013-01-19 20:40:00,
2013-01-19 13:45:00,61.3,24.3,30.23,ENE,58,0.0,4.9,24,0.00,,---,0.00,VWS V13.01,2013-01-19 20:45:00,
2013-01-19 13:51:00,62.1,21.7,30.23,ENE,58,0.0,4.9,21,0.00,,---,0.00,VWS V13.01,2013-01-19 20:51:00,
2013-01-19 13:57:00,62.6,18.5,30.23,ENE,58,0.0,4.9,18,0.00,,---,0.00,VWS V13.01,2013-01-19 20:57:00,
2013-01-19 14:03:00,62.4,22.0,30.23,North,0,0.0,0.0,21,0.00,,---,0.00,VWS V13.01,2013-01-19 21:03:00,
2013-01-19 14:09:00,62.8,15.9,30.23,North,353,3.6,3.6,16,0.00,,---,0.00,VWS V13.01,2013-01-19 21:09:00,
2013-01-19 14:14:00,63.0,18.8,30.23,WNW,300,2.7,3.6,18,0.00,,---,0.00,VWS V13.01,2013-01-19 21:14:00,
2013-01-19 14:20:00,63.7,19.4,30.23,NW,313,3.1,3.6,18,0.00,,---,0.00,VWS V13.01,2013-01-19 21:20:00,
2013-01-19 14:25:00,63.5,16.5,30.23,NNW,344,0.0,3.6,16,0.00,,---,0.00,VWS V13.01,2013-01-19 21:25:00,
2013-01-19 14:31:00,64.0,17.0,30.23,NW,322,5.4,5.8,16,0.00,,---,0.00,VWS V13.01,2013-01-19 21:31:00,
2013-01-19 14:36:00,64.0,17.0,30.23,NE,37,2.7,5.8,16,0.00,,---,0.00,VWS V13.01,2013-01-19 21:36:00,
2013-01-19 14:41:00,64.4,15.8,30.23,NE,43,0.0,5.8,15,0.00,,---,0.00,VWS V13.01,2013-01-19 21:41:00,
2013-01-19 14:47:00,65.5,20.9,30.23,NE,43,0.0,5.8,18,0.00,,---,0.00,VWS V13.01,2013-01-19 21:47:00,
2013-01-19 14:52:00,65.1,16.4,30.23,NE,43,0.0,5.8,15,0.00,,---,0.00,VWS V13.01,2013-01-19 21:52:00,
2013-01-19 14:57:00,65.1,13.1,30.23,ENE,71,0.0,5.8,13,0.00,,---,0.00,VWS V13.01,2013-01-19 21:57:00,
2013-01-19 15:02:00,64.9,16.2,30.23,ENE,68,0.0,0.0,15,0.00,,---,0.00,VWS V13.01,2013-01-19 22:02:00,
2013-01-19 15:08:00,65.1,16.4,30.23,NE,49,0.0,0.0,15,0.00,,---,0.00,VWS V13.01,2013-01-19 22:08:00,
2013-01-19 15:14:00,65.5,16.6,30.23,NW,318,0.0,0.0,15,0.00,,---,0.00,VWS V13.01,2013-01-19 22:14:00,
2013-01-19 15:19:00,65.1,16.4,30.23,NW,316,0.0,0.0,15,0.00,,---,0.00,VWS V13.01,2013-01-19 22:19:00,
2013-01-19 15:26:00,65.7,16.8,30.23,WNW,294,0.0,0.0,15,0.00,,---,0.00,VWS V13.01,2013-01-19 22:26:00,
2013-01-19 15:32:00,66.4,20.3,30.23,ENE,74,0.0,0.0,17,0.00,,---,0.00,VWS V13.01,2013-01-19 22:32:00,
2013-01-19 15:39:00,66.9,20.7,30.23,East,91,0.0,0.0,17,0.00,,---,0.00,VWS V13.01,2013-01-19 22:39:00,
2013-01-19 15:43:00,66.9,24.6,30.23,East,91,0.0,0.0,20,0.00,,---,0.00,VWS V13.01,2013-01-19 22:43:00,
2013-01-19 15:49:00,66.2,17.2,30.23,East,91,0.0,0.0,15,0.00,,---,0.00,VWS V13.01,2013-01-19 22:49:00,
2013-01-19 15:54:00,66.0,21.3,30.23,NW,310,0.0,0.0,18,0.00,,---,0.00,VWS V13.01,2013-01-19 22:54:00,
2013-01-19 15:59:00,66.0,21.3,30.23,NW,310,0.0,0.0,18,0.00,,---,0.00,VWS V13.01,2013-01-19 22:59:00,
2013-01-19 16:08:00,65.7,16.8,30.23,North,10,4.5,4.5,15,0.00,,---,0.00,VWS V13.01,2013-01-19 23:08:00,
2013-01-19 16:14:00,65.5,16.6,30.23,North,6,0.0,4.5,15,0.00,,---,0.00,VWS V13.01,2013-01-19 23:14:00,
2013-01-19 16:20:00,65.5,20.9,30.23,NNW,334,0.0,4.5,18,0.00,,---,0.00,VWS V13.01,2013-01-19 23:20:00,
2013-01-19 16:25:00,65.7,21.0,30.23,NNW,334,0.0,4.5,18,0.00,,---,0.00,VWS V13.01,2013-01-19 23:25:00,
2013-01-19 16:30:00,65.5,20.9,30.23,NNW,334,0.0,4.5,18,0.00,,---,0.00,VWS V13.01,2013-01-19 23:30:00,
2013-01-19 16:35:00,65.5,16.6,30.23,NNW,334,0.0,4.5,15,0.00,,---,0.00,VWS V13.01,2013-01-19 23:35:00,
2013-01-19 16:41:00,65.5,20.9,30.23,NE,48,0.0,4.5,18,0.00,,---,0.00,VWS V13.01,2013-01-19 23:41:00,
2013-01-19 16:46:00,65.3,20.7,30.23,NE,45,0.0,4.5,18,0.00,,---,0.00,VWS V13.01,2013-01-19 23:46:00,
2013-01-19 16:52:00,65.1,20.6,30.23,ENE,75,0.0,4.5,18,0.00,,---,0.00,VWS V13.01,2013-01-19 23:52:00,
2013-01-19 16:57:00,64.9,20.4,30.23,ENE,75,0.0,4.5,18,0.00,,---,0.00,VWS V13.01,2013-01-19 23:57:00,
2013-01-19 17:02:00,64.4,20.0,30.23,ENE,75,0.0,0.0,18,0.00,,---,0.00,VWS V13.01,2013-01-20 00:02:00,
2013-01-19 17:08:00,64.0,19.7,30.23,NE,52,0.0,0.0,18,0.00,,---,0.00,VWS V13.01,2013-01-20 00:08:00,
2013-01-19 17:14:00,63.7,19.4,30.23,NE,52,0.0,0.0,18,0.00,,---,0.00,VWS V13.01,2013-01-20 00:14:00,
2013-01-19 17:19:00,63.3,19.1,30.23,NE,52,0.0,0.0,18,0.00,,---,0.00,VWS V13.01,2013-01-20 00:19:00,
2013-01-19 17:25:00,62.6,18.5,30.23,NE,52,0.0,0.0,18,0.00,,---,0.00,VWS V13.01,2013-01-20 00:25:00,
2013-01-19 17:30:00,62.2,19.5,30.23,NE,52,0.0,0.0,19,0.00,,---,0.00,VWS V13.01,2013-01-20 00:30:00,
2013-01-19 17:35:00,61.5,18.9,30.23,NE,52,0.0,0.0,19,0.00,,---,0.00,VWS V13.01,2013-01-20 00:35:00,
2013-01-19 17:43:00,60.4,18.0,30.23,NE,52,0.0,0.0,19,0.00,,---,0.00,VWS V13.01,2013-01-20 00:43:00,
2013-01-19 17:48:00,60.1,17.7,30.23,WNW,303,0.0,0.0,19,0.00,,---,0.00,VWS V13.01,2013-01-20 00:48:00,
2013-01-19 17:54:00,58.5,16.4,30.23,NW,308,0.0,0.0,19,0.00,,---,0.00,VWS V13.01,2013-01-20 00:54:00,
2013-01-19 17:59:00,56.7,16.1,30.23,West,262,2.7,4.9,20,0.00,,---,0.00,VWS V13.01,2013-01-20 00:59:00,
2013-01-19 18:04:00,55.6,15.2,30.23,West,262,3.6,3.6,20,0.00,,---,0.00,VWS V13.01,2013-01-20 01:04:00,
2013-01-19 18:10:00,54.5,14.3,30.23,West,262,3.6,3.6,20,0.00,,---,0.00,VWS V13.01,2013-01-20 01:10:00,
2013-01-19 18:15:00,53.8,13.7,30.23,West,262,3.6,3.6,20,0.00,,---,0.00,VWS V13.01,2013-01-20 01:15:00,
2013-01-19 18:20:00,52.9,14.0,30.23,West,262,3.6,3.6,21,0.00,,---,0.00,VWS V13.01,2013-01-20 01:20:00,
2013-01-19 18:26:00,52.2,13.4,30.23,West,262,3.1,3.6,21,0.00,,---,0.00,VWS V13.01,2013-01-20 01:26:00,
2013-01-19 18:31:00,51.8,13.1,30.26,West,262,0.0,3.6,21,0.00,,---,0.00,VWS V13.01,2013-01-20 01:31:00,
2013-01-19 18:36:00,51.3,12.7,30.26,West,262,0.0,3.6,21,0.00,,---,0.00,VWS V13.01,2013-01-20 01:36:00,
2013-01-19 18:43:00,50.2,11.8,30.26,West,262,0.0,3.6,21,0.00,,---,0.00,VWS V13.01,2013-01-20 01:43:00,
2013-01-19 18:50:00,49.5,11.2,30.26,West,262,0.0,3.6,21,0.00,,---,0.00,VWS V13.01,2013-01-20 01:50:00,
2013-01-19 18:55:00,49.3,11.0,30.26,West,262,0.0,3.6,21,0.00,,---,0.00,VWS V13.01,2013-01-20 01:55:00,
2013-01-19 19:00:00,48.9,10.7,30.26,West,262,0.0,0.0,21,0.00,,---,0.00,VWS V13.01,2013-01-20 02:00:00,
2013-01-19 19:07:00,48.6,10.4,30.26,West,262,0.0,0.0,21,0.00,,---,0.00,VWS V13.01,2013-01-20 02:07:00,
2013-01-19 19:12:00,47.8,10.9,30.26,West,262,0.0,0.0,22,0.00,,---,0.00,VWS V13.01,2013-01-20 02:12:00,
2013-01-19 19:18:00,47.8,10.9,30.26,West,262,0.0,0.0,22,0.00,,---,0.00,VWS V13.01,2013-01-20 02:18:00,
2013-01-19 19:23:00,46.8,11.9,30.26,West,262,0.0,0.0,24,0.00,,---,0.00,VWS V13.01,2013-01-20 02:23:00,
2013-01-19 19:28:00,46.2,12.4,30.26,West,262,0.0,0.0,25,0.00,,---,0.00,VWS V13.01,2013-01-20 02:28:00,
2013-01-19 19:33:00,45.9,13.8,30.26,West,262,0.0,0.0,27,0.00,,---,0.00,VWS V13.01,2013-01-20 02:33:00,
2013-01-19 19:38:00,45.3,13.3,30.26,West,262,0.0,0.0,27,0.00,,---,0.00,VWS V13.01,2013-01-20 02:38:00,
2013-01-19 19:44:00,44.8,12.9,30.26,West,262,0.0,0.0,27,0.00,,---,0.00,VWS V13.01,2013-01-20 02:44:00,
2013-01-19 19:49:00,44.2,13.2,30.26,West,262,0.0,0.0,28,0.00,,---,0.00,VWS V13.01,2013-01-20 02:49:00,
2013-01-19 19:54:00,43.7,12.8,30.26,West,262,0.0,0.0,28,0.00,,---,0.00,VWS V13.01,2013-01-20 02:54:00,
2013-01-19 19:59:00,42.8,12.0,30.26,West,262,0.0,0.0,28,0.00,,---,0.00,VWS V13.01,2013-01-20 02:59:00,
2013-01-19 20:05:00,43.2,13.1,30.26,West,262,0.0,0.0,29,0.00,,---,0.00,VWS V13.01,2013-01-20 03:05:00,
2013-01-19 20:10:00,43.0,12.9,30.26,West,262,0.0,0.0,29,0.00,,---,0.00,VWS V13.01,2013-01-20 03:10:00,
2013-01-19 20:15:00,42.8,12.8,30.26,West,262,0.0,0.0,29,0.00,,---,0.00,VWS V13.01,2013-01-20 03:15:00,
2013-01-19 20:20:00,42.8,13.5,30.26,WSW,245,0.0,0.0,30,0.00,,---,0.00,VWS V13.01,2013-01-20 03:20:00,
2013-01-19 20:25:00,42.3,13.1,30.26,WSW,245,0.0,0.0,30,0.00,,---,0.00,VWS V13.01,2013-01-20 03:25:00,
2013-01-19 20:31:00,42.1,12.9,30.26,WSW,245,0.0,0.0,30,0.00,,---,0.00,VWS V13.01,2013-01-20 03:31:00,
2013-01-19 20:36:00,42.1,13.6,30.26,WSW,245,0.0,0.0,31,0.00,,---,0.00,VWS V13.01,2013-01-20 03:36:00,
2013-01-19 20:42:00,42.1,13.6,30.26,WSW,245,0.0,0.0,31,0.00,,---,0.00,VWS V13.01,2013-01-20 03:42:00,
2013-01-19 20:47:00,41.9,13.5,30.26,WSW,240,0.0,0.0,31,0.00,,---,0.00,VWS V13.01,2013-01-20 03:47:00,
2013-01-19 20:53:00,41.7,13.3,30.26,WSW,240,0.0,0.0,31,0.00,,---,0.00,VWS V13.01,2013-01-20 03:53:00,
2013-01-19 20:58:00,41.5,13.2,30.26,WSW,240,0.0,0.0,31,0.00,,---,0.00,VWS V13.01,2013-01-20 03:58:00,
2013-01-19 21:03:00,41.2,12.9,30.29,WSW,240,0.0,0.0,31,0.00,,---,0.00,VWS V13.01,2013-01-20 04:03:00,
2013-01-19 21:08:00,40.8,12.5,30.29,WSW,240,0.0,0.0,31,0.00,,---,0.00,VWS V13.01,2013-01-20 04:08:00,
2013-01-19 21:14:00,40.3,12.1,30.29,WSW,240,0.0,0.0,31,0.00,,---,0.00,VWS V13.01,2013-01-20 04:14:00,
2013-01-19 21:19:00,40.1,11.9,30.29,WSW,240,0.0,0.0,31,0.00,,---,0.00,VWS V13.01,2013-01-20 04:19:00,
2013-01-19 21:25:00,40.1,11.9,30.29,WSW,240,0.0,0.0,31,0.00,,---,0.00,VWS V13.01,2013-01-20 04:25:00,
2013-01-19 21:30:00,40.3,12.1,30.26,WSW,239,0.0,0.0,31,0.00,,---,0.00,VWS V13.01,2013-01-20 04:30:00,
2013-01-19 21:37:00,40.5,12.2,30.26,WSW,239,0.0,0.0,31,0.00,,---,0.00,VWS V13.01,2013-01-20 04:37:00,
2013-01-19 21:42:00,40.1,11.9,30.26,WSW,239,0.0,0.0,31,0.00,,---,0.00,VWS V13.01,2013-01-20 04:42:00,
2013-01-19 21:47:00,39.9,12.5,30.26,WSW,239,0.0,0.0,32,0.00,,---,0.00,VWS V13.01,2013-01-20 04:47:00,
2013-01-19 21:52:00,39.7,12.3,30.26,WSW,239,0.0,0.0,32,0.00,,---,0.00,VWS V13.01,2013-01-20 04:52:00,
2013-01-19 21:57:00,39.4,12.0,30.26,WSW,239,0.0,0.0,32,0.00,,---,0.00,VWS V13.01,2013-01-20 04:57:00,
2013-01-19 22:01:00,39.4,12.0,30.29,WSW,239,0.0,0.0,32,0.00,,---,0.00,VWS V13.01,2013-01-20 05:01:00,
2013-01-19 22:03:00,39.4,12.0,30.29,WSW,239,0.0,0.0,32,0.00,,---,0.00,VWS V13.01,2013-01-20 05:03:00,
2013-01-19 22:05:00,39.4,12.0,30.29,WSW,239,0.0,0.0,32,0.00,,---,0.00,VWS V13.01,2013-01-20 05:05:00,
2013-01-19 22:06:00,39.4,12.0,30.29,WSW,239,0.0,0.0,32,0.00,,---,0.00,VWS V13.01,2013-01-20 05:06:00,
2013-01-19 22:11:00,38.8,11.5,30.29,WSW,243,0.0,0.0,32,0.00,,---,0.00,VWS V13.01,2013-01-20 05:11:00,
2013-01-19 22:16:00,39.0,11.7,30.29,WSW,243,0.0,0.0,32,0.00,,---,0.00,VWS V13.01,2013-01-20 05:16:00,
2013-01-19 22:21:00,38.7,11.4,30.29,WSW,243,0.0,0.0,32,0.00,,---,0.00,VWS V13.01,2013-01-20 05:21:00,
2013-01-19 22:26:00,38.7,11.4,30.29,WSW,243,0.0,0.0,32,0.00,,---,0.00,VWS V13.01,2013-01-20 05:26:00,
2013-01-19 22:32:00,39.0,12.4,30.29,WSW,243,0.0,0.0,33,0.00,,---,0.00,VWS V13.01,2013-01-20 05:32:00,
2013-01-19 22:37:00,39.2,11.8,30.29,WSW,243,0.0,0.0,32,0.00,,---,0.00,VWS V13.01,2013-01-20 05:37:00,
2013-01-19 22:42:00,39.2,11.8,30.29,WSW,243,0.0,0.0,32,0.00,,---,0.00,VWS V13.01,2013-01-20 05:42:00,
2013-01-19 22:47:00,39.0,11.7,30.29,WSW,243,0.0,0.0,32,0.00,,---,0.00,VWS V13.01,2013-01-20 05:47:00,
2013-01-19 22:52:00,38.8,11.5,30.29,WSW,243,0.0,0.0,32,0.00,,---,0.00,VWS V13.01,2013-01-20 05:52:00,
2013-01-19 22:57:00,38.7,11.4,30.29,WSW,243,0.0,0.0,32,0.00,,---,0.00,VWS V13.01,2013-01-20 05:57:00,
2013-01-19 23:02:00,38.8,11.5,30.29,WSW,243,0.0,0.0,32,0.00,,---,0.00,VWS V13.01,2013-01-20 06:02:00,
2013-01-19 23:07:00,40.3,12.1,30.29,WSW,243,0.0,0.0,31,0.00,,---,0.00,VWS V13.01,2013-01-20 06:07:00,
2013-01-19 23:13:00,39.4,12.0,30.29,WSW,243,0.0,0.0,32,0.00,,---,0.00,VWS V13.01,2013-01-20 06:13:00,
2013-01-19 23:18:00,39.2,11.8,30.29,WSW,243,0.0,0.0,32,0.00,,---,0.00,VWS V13.01,2013-01-20 06:18:00,
2013-01-19 23:23:00,39.2,11.8,30.29,WSW,243,0.0,0.0,32,0.00,,---,0.00,VWS V13.01,2013-01-20 06:23:00,
2013-01-19 23:28:00,39.2,11.8,30.29,WSW,243,0.0,0.0,32,0.00,,---,0.00,VWS V13.01,2013-01-20 06:28:00,
2013-01-19 23:33:00,38.8,11.5,30.29,WSW,243,0.0,0.0,32,0.00,,---,0.00,VWS V13.01,2013-01-20 06:33:00,
2013-01-19 23:38:00,38.8,11.5,30.29,WSW,243,0.0,0.0,32,0.00,,---,0.00,VWS V13.01,2013-01-20 06:38:00,
2013-01-19 23:44:00,38.8,11.5,30.29,WSW,243,0.0,0.0,32,0.00,,---,0.00,VWS V13.01,2013-01-20 06:44:00,
2013-01-19 23:49:00,38.8,11.5,30.26,WSW,243,0.0,0.0,32,0.00,,---,0.00,VWS V13.01,2013-01-20 06:49:00,
2013-01-19 23:54:00,39.4,11.3,30.26,WSW,243,0.0,0.0,31,0.00,,---,0.00,VWS V13.01,2013-01-20 06:54:00,
2013-01-19 23:59:00,39.4,11.3,30.26,WSW,243,0.0,0.0,31,0.00,,---,0.00,VWS V13.01,2013-01-20 06:59:00,